Temp
34 34 34 35 35 34 34 33 33 33 32 32 32 32 31 31 31 31 31 31 31 31 31 31 30 30 29 29 28 28 27 26 26 26 27 27 27 27 27 27 25 24 25 24
33 35 35 35 34 34 33 33 33 32 32 32 32 32 32 31 32 32 31 32 32 33 32 31 31 30 30 30 29 28 27 27 26 27 27 27 27 27 27 27 26 25 25 24
34 35 35 35 35 35 35 34 34 33 32 32 32 32 32 32 32 32 32 33 33 33 33 33 31 31 30 30 29 29 28 27 26 26 26 25 26 26 27 27 27 26 25 25
35 36 35 36 36 35 35 34 34 32 33 34 34 34 32 33 32 32 32 33 33 33 33 34 33 32 32 31 31 30 28 27 26 25 26 26 28 28 28 27 27 26 25 25
34 36 35 35 34 35 33 34 34 33 34 33 34 34 33 34 33 32 33 34 34 34 34 34 33 33 33 32 32 31 29 27 27 25 26 26 26 28 28 28 26 26 25 25
34 37 35 36 35 34 33 34 34 34 35 35 35 35 35 33 34 35 34 34 34 35 35 34 34 33 33 32 31 31 29 26 26 26 25 26 27 27 28 27 28 28 28 27
36 37 37 35 35 34 34 35 36 35 35 35 35 34 37 37 36 36 35 35 35 35 35 35 35 34 33 33 32 31 30 28 27 26 26 26 26 26 26 26 28 28 28 28
35 35 36 36 36 36 35 35 35 33 34 36 33 35 36 37 37 35 37 36 36 35 36 35 35 34 34 33 32 32 31 29 28 27 27 26 26 27 27 27 28 28 28 28
35 35 36 36 36 36 35 34 36 36 36 34 37 37 36 36 36 35 36 35 36 36 36 35 35 34 34 34 33 32 31 30 29 28 27 26 25 26 28 27 27 27 27 28
36 34 37 36 36 35 35 36 35 35 34 34 37 36 37 35 36 35 35 35 35 35 36 36 36 35 34 34 34 33 32 32 31 30 28 27 27 26 26 26 26 27 27 26
37 36 36 36 36 37 35 36 36 37 36 35 36 37 37 36 36 35 34 34 35 35 35 35 35 35 34 34 34 34 33 32 31 30 29 28 27 27 26 27 26 26 26 26
37 37 36 37 38 37 37 37 37 36 35 34 35 36 35 36 36 35 34 33 33 34 34 32 33 32 32 32 33 32 32 31 31 29 28 27 27 27 28 27 27 26 25 24
37 36 35 36 38 37 36 38 38 38 36 35 34 36 34 35 34 34 33 32 32 32 32 29 28 29 31 32 31 30 30 30 29 28 28 28 28 27 28 29 28 26 25 25
34 37 37 36 37 39 37 37 37 38 37 36 37 37 35 35 35 34 33 32 31 31 31 32 30 31 31 30 29 28 30 29 28 29 28 27 28 28 26 27 27 26 23 23
35 36 37 38 38 38 38 38 38 36 37 36 37 38 36 36 35 35 34 33 32 31 32 32 32 32 30 29 29 28 28 27 27 25 26 25 27 27 26 26 26 24 23 21
36 35 36 35 38 37 37 38 38 37 37 37 37 37 39 38 36 35 34 33 32 32 32 32 32 31 30 29 29 28 27 27 27 27 27 25 26 26 24 24 23 22 21 21
36 36 35 35 37 37 35 37 38 38 39 38 37 37 37 36 35 35 34 33 33 33 33 32 32 31 30 29 28 28 26 26 26 26 25 25 24 23 23 22 22 22 23 23
36 36 36 36 35 33 38 39 39 38 39 39 39 38 35 36 36 36 35 34 33 33 33 32 31 29 29 28 27 26 26 25 25 25 24 24 24 23 23 23 23 23 23 23
36 36 35 35 35 36 38 38 37 37 37 40 39 38 36 36 36 35 35 35 34 33 33 31 30 30 28 28 26 26 26 25 25 24 24 24 24 24 23 23 23 23 23 23
36 35 35 35 34 34 37 39 39 38 36 39 40 38 35 36 34 34 34 34 34 33 32 31 30 28 28 27 27 27 26 25 24 24 24 24 24 23 24 23 23 23 23 22
33 33 33 34 34 36 39 37 37 34 36 38 37 36 35 35 37 35 34 33 33 32 31 30 30 29 28 28 28 27 27 25 24 24 24 23 23 23 23 23 23 23 23 22
34 33 34 34 34 34 37 36 35 38 37 37 36 35 34 36 35 33 33 33 32 31 30 30 30 29 28 28 27 27 25 24 24 24 23 23 24 25 24 23 23 23 22 22
34 36 35 36 36 37 37 38 38 37 38 35 36 35 35 34 33 33 33 32 32 31 30 30 30 28 27 27 27 26 24 24 24 24 24 24 24 24 23 23 23 24 23 25
34 36 35 35 36 37 37 38 37 36 36 36 36 35 35 34 34 33 33 33 32 31 30 30 29 28 26 26 26 25 24 24 24 24 24 24 24 24 25 25 25 26 26 26
35 34 34 34 35 35 35 36 37 36 35 34 35 35 34 35 34 34 33 32 32 31 30 29 29 27 26 25 26 25 24 24 24 24 25 25 26 26 25 26 26 26 24 25
32 34 34 34 36 36 37 38 36 35 34 34 33 33 34 34 34 34 33 32 31 30 29 28 28 27 26 25 25 24 24 24 25 26 26 27 27 27 27 27 26 24 24 24
Height
769 776 777 771 768 769 775 779 782 778 774 780 780 780 784 784 785 786 788 789 790 793 795 799 805 809 813 817 820 822 825 827 829 830 830 830 830 831 832 832 832 832 832 832
777 773 764 763 767 772 774 780 782 779 776 782 780 780 777 781 782 783 785 785 786 787 793 799 802 805 808 812 816 819 821 824 826 827 828 829 830 829 830 831 831 830 830 831
777 767 759 764 764 770 765 776 775 781 776 775 781 784 780 776 777 778 779 780 781 783 787 791 797 801 806 809 812 815 817 820 821 824 826 828 829 830 829 828 828 828 828 829
767 757 766 762 764 762 770 765 770 779 782 781 770 786 780 773 780 778 776 777 777 779 783 785 788 794 798 802 806 810 814 816 818 821 823 825 824 824 825 827 828 828 828 828
773 764 767 769 771 763 776 763 766 771 774 780 776 779 773 764 775 773 770 769 770 772 777 782 785 788 792 796 801 805 809 812 815 817 820 822 824 823 824 825 827 826 826 827
770 749 759 758 760 761 764 766 769 770 767 777 771 772 767 770 759 758 759 760 763 766 770 776 780 785 790 794 798 802 805 808 811 814 816 819 821 822 822 824 824 823 824 826
758 755 749 755 765 763 766 767 776 780 779 783 767 777 753 741 740 742 750 754 757 759 765 770 775 780 785 789 794 797 801 804 806 809 812 814 817 819 821 823 823 823 823 824
777 783 756 748 758 764 764 767 784 807 795 779 774 776 761 734 733 739 735 743 749 755 757 763 769 774 780 785 789 793 796 800 803 805 808 811 813 816 818 820 821 822 822 822
773 775 751 751 749 755 767 776 757 770 765 782 759 749 742 738 741 743 741 743 745 747 751 758 764 770 775 780 785 789 792 795 799 801 804 807 810 813 815 817 819 820 820 820
756 781 748 750 751 754 761 752 776 769 797 795 762 764 759 752 747 744 745 744 742 745 748 753 760 764 771 776 780 785 788 790 794 798 801 804 806 809 812 815 816 817 817 818
747 760 761 755 758 755 762 762 760 758 768 789 778 765 740 741 740 743 743 742 740 743 748 751 759 763 770 775 778 781 784 787 790 794 797 801 804 807 809 812 813 814 815 816
745 751 766 756 733 740 747 752 751 769 780 775 774 766 738 736 736 738 744 745 745 745 750 758 762 767 771 774 777 780 783 785 787 790 794 798 801 804 805 806 807 810 811 810
740 761 772 762 743 742 753 741 743 743 758 771 785 766 740 737 742 741 747 751 751 752 755 763 768 768 769 774 778 780 782 783 784 787 791 794 797 799 800 802 803 804 805 802
743 743 750 765 750 731 747 744 743 745 762 760 753 750 747 744 743 743 747 752 753 755 756 760 766 765 771 772 778 779 779 779 780 782 787 790 794 795 798 802 801 801 799 803
743 751 737 734 728 730 736 739 738 751 743 757 747 742 741 737 738 738 742 748 753 756 756 759 762 766 770 773 776 778 778 778 778 780 781 785 785 789 789 797 801 803 802 805
732 748 739 748 730 733 742 732 731 735 736 739 739 740 714 720 727 737 742 747 752 753 754 756 759 764 769 773 775 777 778 778 778 779 781 785 787 784 790 797 801 802 804 805
733 738 745 752 728 738 755 735 729 726 720 727 741 728 719 727 731 736 741 745 749 749 751 754 758 763 768 772 774 776 778 778 779 780 783 784 785 789 794 799 801 804 805 806
732 735 735 748 746 777 725 704 710 718 713 707 711 714 725 720 722 726 732 738 745 747 751 755 760 766 770 773 776 777 779 780 782 783 785 786 789 792 796 800 803 804 806 806
721 727 740 751 749 732 718 715 720 724 723 699 702 705 713 714 718 729 729 734 740 745 750 757 762 766 770 773 777 779 781 783 784 786 788 790 792 795 798 802 804 805 806 806
719 723 735 736 756 758 717 697 691 701 734 694 688 699 713 711 734 730 727 734 740 746 752 758 764 769 772 775 778 780 783 786 788 789 791 793 795 798 801 803 804 806 807 809
737 734 741 736 742 724 694 696 699 744 726 689 689 696 705 714 705 713 726 733 741 747 754 760 764 768 773 775 778 782 784 787 790 792 795 796 799 801 803 805 808 808 810 811
723 734 728 730 736 744 690 702 720 695 687 687 690 695 704 702 706 716 725 734 741 749 756 760 764 769 773 776 780 784 787 791 793 794 797 799 801 803 806 807 809 810 811 812
718 702 711 708 708 689 682 685 681 683 685 691 691 694 699 706 713 718 724 733 741 748 755 759 764 770 775 778 781 785 789 792 794 796 798 800 804 806 807 808 810 810 811 811
692 684 700 700 693 686 681 678 681 682 684 685 686 692 694 704 709 717 724 733 740 747 753 758 763 770 775 780 782 786 789 792 795 797 799 803 805 807 808 808 809 809 809 809
683 687 696 696 687 683 681 677 676 680 683 686 686 689 695 700 706 713 723 731 740 747 753 758 763 769 775 780 782 786 789 793 795 798 800 803 805 806 808 807 808 808 809 809
688 687 692 693 674 676 672 664 672 678 683 685 687 692 695 699 703 711 721 730 738 746 752 758 764 769 774 779 782 786 790 792 794 796 798 800 801 804 804 805 807 808 809 809
Wind_Speed
2 10 2 10 7 5 6 4 4 3 3 5 4 5 10 12 12 13 14 13 13 12 12 17 17 16 14 13 13 10 9 8 7 8 8 8 7 5 5 5 6 6 5 4
7 5 8 5 5 6 7 6 3 2 4 6 5 7 11 13 13 13 14 14 15 15 14 15 15 15 15 14 13 12 12 10 10 10 9 7 5 5 5 4 6 6 7 5
8 11 8 7 7 5 5 7 3 6 4 6 4 8 10 14 12 13 15 14 15 16 15 16 18 18 17 16 16 15 13 13 13 13 11 8 7 7 7 6 4 3 5 6
8 2 6 9 6 11 5 4 3 5 7 1 8 3 12 16 16 16 17 16 17 16 15 14 17 18 18 16 14 13 13 13 12 14 13 13 10 8 5 4 3 3 4 7
10 6 11 13 8 7 4 6 5 6 7 5 8 5 8 15 16 19 19 18 18 18 18 17 17 16 16 14 13 12 12 13 13 14 15 14 15 10 9 6 4 3 4 6
23 14 8 8 4 3 3 4 6 5 6 4 4 6 10 11 19 19 20 20 18 18 17 17 20 18 15 12 11 11 12 12 15 16 16 15 12 11 9 8 7 6 4 3
14 9 3 8 6 4 6 7 3 6 5 6 3 5 6 8 5 16 20 20 19 18 17 16 16 17 15 14 13 12 11 13 14 17 17 17 16 14 13 11 9 7 5 3
8 9 8 8 7 6 3 6 5 4 5 5 4 2 5 5 6 5 12 19 19 19 18 17 16 17 16 15 13 12 11 12 14 17 18 17 16 15 14 13 11 8 5 4
6 10 3 5 2 6 6 5 5 7 4 4 3 5 8 7 7 7 10 13 17 20 18 18 18 19 18 16 13 13 12 12 14 15 17 18 17 16 13 12 10 9 8 6
7 10 9 2 5 6 10 4 5 4 4 5 4 3 7 8 8 7 7 10 17 17 18 17 16 19 17 17 15 12 12 12 12 14 16 17 17 16 15 13 12 9 7 6
15 9 4 4 10 6 6 6 4 4 4 5 4 7 5 4 5 6 6 4 9 15 14 13 12 15 16 12 11 11 11 10 9 10 13 14 13 13 12 11 11 10 8 5
19 9 11 16 8 3 7 10 9 7 3 2 6 2 3 3 4 4 8 7 8 11 12 10 11 14 11 10 9 6 3 5 6 9 10 10 10 11 12 12 12 9 9 11
8 12 13 13 14 9 10 11 8 6 3 8 7 1 2 6 6 4 10 10 10 12 13 13 8 9 15 11 6 5 4 4 5 7 8 9 8 10 11 11 11 13 16 20
5 15 15 12 14 6 13 10 8 11 8 11 10 9 8 9 8 8 11 12 13 12 13 13 10 10 11 10 8 6 4 4 5 9 11 13 8 10 5 8 12 16 17 16
10 16 16 18 17 9 9 9 6 11 12 9 12 9 4 10 11 10 12 15 14 13 13 13 12 10 10 9 7 4 3 2 5 9 14 11 20 13 13 11 12 12 12 10
12 9 6 12 18 12 17 16 12 11 11 10 15 18 10 9 12 12 14 16 16 15 14 14 11 10 9 7 6 4 5 6 7 9 10 12 12 13 11 13 11 10 9 4
9 9 7 13 12 11 14 16 15 15 13 12 14 7 6 12 16 16 15 16 16 16 14 13 12 9 7 6 5 7 8 9 11 12 12 13 14 14 14 11 10 9 8 7
10 10 7 9 3 12 15 2 6 12 14 14 13 10 7 10 17 16 16 17 16 15 14 12 11 11 10 9 9 9 9 11 13 14 14 15 16 16 16 14 13 11 9 8
11 11 8 9 12 13 11 7 9 12 16 15 13 12 10 12 17 16 17 16 17 16 13 13 13 13 12 11 10 10 10 11 13 14 15 16 16 17 15 14 13 10 10 9
11 12 10 11 14 18 11 16 3 5 14 19 19 12 15 20 16 13 18 17 16 18 17 17 16 15 14 13 12 12 12 13 14 15 15 15 16 16 15 13 12 10 9 7
10 9 14 14 15 14 12 8 6 10 13 2 7 12 20 21 12 18 19 18 21 20 20 19 17 15 15 14 13 11 13 14 14 16 16 16 15 15 13 12 11 10 8 7
13 10 11 12 18 19 6 10 10 9 2 5 10 12 17 15 14 23 22 20 19 20 23 20 18 17 16 14 14 14 15 14 15 17 17 16 14 13 12 12 10 8 7 6
15 15 11 13 12 14 14 13 10 6 4 5 10 14 17 14 18 23 22 22 18 24 22 21 19 18 16 15 15 16 15 13 15 16 15 13 11 11 10 9 8 7 5 4
15 13 11 15 14 15 12 15 7 9 6 6 12 16 20 17 21 23 21 20 19 24 23 22 21 18 17 15 15 16 16 14 15 15 14 12 11 9 8 7 6 4 4 4
13 12 13 14 15 8 9 14 14 10 6 8 11 16 19 19 22 23 20 20 21 25 24 22 20 19 18 16 16 16 16 15 16 14 13 12 11 9 8 3 4 2 2 2
15 12 10 11 12 13 17 13 15 14 12 12 15 16 18 19 21 23 21 24 26 26 24 21 19 19 19 18 17 17 16 15 16 15 14 13 10 10 8 6 6 5 3 5
Wind_Direction
146 268 10 13 337 335 291 277 319 84 147 244 215 169 174 174 184 183 187 190 195 197 184 175 186 193 194 199 207 221 225 224 229 224 224 231 248 236 237 256 273 268 264 253
224 256 16 332 324 291 243 248 214 143 177 228 184 212 175 186 192 193 196 195 201 193 191 202 209 214 215 215 225 232 237 237 234 224 224 231 245 235 247 256 269 259 242 242
280 331 333 295 316 299 226 258 237 308 162 205 209 215 188 189 200 196 205 208 202 205 209 200 207 216 220 228 231 234 238 235 229 214 211 219 229 242 244 239 245 252 232 237
285 33 295 311 16 337 13 344 223 199 229 204 219 121 193 185 199 205 205 206 206 203 206 214 209 210 218 222 225 233 237 231 216 203 209 210 224 226 224 254 276 266 243 240
284 315 333 315 12 327 358 285 223 212 239 293 172 247 118 192 200 205 207 202 205 199 202 209 217 218 215 216 224 230 227 220 211 201 204 208 222 222 228 239 241 250 258 243
243 272 289 343 3 5 156 156 171 202 256 212 93 289 161 181 218 202 203 204 204 198 201 204 210 212 217 218 223 218 204 202 199 202 204 213 222 229 231 231 249 257 259 251
251 257 316 269 246 176 242 256 228 201 180 52 74 259 16 164 174 203 201 202 202 202 200 207 210 212 215 213 212 215 201 198 195 198 201 208 216 222 232 239 242 269 263 241
271 237 211 161 262 333 239 326 305 313 19 1 120 279 86 153 155 174 205 198 200 200 200 203 203 203 198 203 201 204 197 198 200 200 203 208 213 219 226 230 238 245 264 262
235 238 143 231 221 271 108 229 10 291 187 229 76 98 163 162 172 183 199 194 206 199 202 200 197 203 199 203 207 208 207 208 205 204 203 206 212 216 220 224 226 240 244 250
255 271 244 102 197 219 264 352 244 179 323 326 77 115 50 182 189 186 189 209 202 197 200 197 202 195 198 206 203 205 214 216 214 215 211 211 212 215 219 224 229 232 241 243
246 238 183 186 217 255 171 221 211 291 287 318 307 87 44 140 146 174 151 165 183 178 184 177 184 183 190 202 209 220 216 228 231 223 221 220 216 215 219 225 233 228 226 216
230 272 241 242 190 172 288 291 292 286 103 263 297 9 103 140 137 123 122 134 139 162 150 146 149 156 159 176 183 204 239 255 242 225 214 214 214 211 213 213 218 204 189 183
195 221 258 232 222 205 242 247 247 296 289 267 281 351 105 158 156 133 136 135 132 133 138 139 145 167 157 166 169 192 219 241 222 191 185 186 194 204 210 211 206 192 189 201
243 248 244 261 240 255 197 222 232 250 255 271 260 283 155 185 179 156 148 150 139 140 143 145 165 168 168 152 175 179 188 204 184 167 170 161 167 171 181 214 202 194 194 200
232 248 247 251 265 200 253 277 248 241 257 264 283 291 108 188 187 170 159 158 151 152 155 152 155 154 157 156 165 152 109 67 137 155 171 187 172 190 151 184 196 194 179 197
225 260 288 262 259 238 256 259 268 242 263 262 270 276 300 179 171 164 163 165 168 163 163 164 162 167 162 165 159 123 103 91 109 138 152 160 163 133 146 171 183 176 183 219
219 244 231 264 213 236 242 243 240 249 243 255 264 20 121 165 182 176 167 170 171 164 161 157 156 153 143 129 132 119 105 103 108 122 132 133 129 131 145 157 148 152 139 128
245 238 231 257 177 234 248 31 290 280 273 270 255 254 201 211 185 173 172 169 167 162 158 154 146 143 142 128 117 118 107 104 109 113 119 122 127 130 134 135 135 132 127 108
239 256 249 248 233 244 248 214 243 241 265 266 265 256 190 208 171 169 171 167 164 161 149 148 146 140 133 129 123 119 119 121 119 119 121 125 130 129 130 133 133 125 115 96
225 237 257 233 259 256 259 260 183 268 260 262 260 237 184 169 178 172 168 166 159 152 145 146 141 142 140 138 132 129 128 127 119 120 121 126 126 131 132 129 119 117 110 109
192 217 226 229 243 257 252 108 151 237 274 286 222 181 181 180 190 148 163 158 156 149 148 145 146 145 143 144 136 133 131 122 124 127 125 123 127 127 125 128 135 130 119 113
210 220 226 234 246 236 128 149 220 276 162 182 180 176 176 179 128 151 156 157 152 151 149 151 146 144 145 144 142 138 129 134 134 127 126 126 127 130 133 131 134 136 138 130
240 241 249 241 227 234 180 231 219 280 197 191 186 172 174 156 158 160 158 157 155 154 158 156 149 145 145 150 148 144 144 143 136 133 127 124 130 134 135 140 149 156 165 151
206 241 253 250 243 250 234 235 229 198 229 202 185 180 172 172 168 164 160 159 159 159 160 157 151 148 148 153 152 152 151 148 148 141 138 140 140 143 148 153 158 153 171 180
266 175 221 240 249 254 247 238 224 200 198 190 178 174 172 176 171 167 163 163 161 158 157 155 155 155 155 158 156 155 155 156 155 155 153 157 159 169 172 184 159 130 111 180
254 221 216 239 233 227 244 217 213 186 175 181 162 168 178 176 175 171 167 166 163 161 159 159 158 159 159 162 161 162 165 164 163 169 169 173 168 177 186 178 175 192 190 178